GW6508 Weather Reports


Display with metric or nautical units.
time (UTC)temp
F
wind
direction
speed
MPH
gust
MPH
rain 1hr
in
rain 24hr
in
rain mn
in
humidity
%
barometer
mb
20260504045029 53 24 2.0 3.0 0.00 0.00 0.00 78 1014.1
20260504044048 53 22 2.0 3.0 0.00 0.00 0.00 78 1014.1
20260504043025 53 23 2.0 3.0 0.00 0.00 0.00 78 1014.0
20260504042024 53 23 2.0 3.0 0.00 0.00 0.00 77 1014.1
20260504041041 53 22 2.0 3.0 0.00 0.00 0.00 77 1014.0
20260504040020 53 21 2.0 4.0 0.00 0.00 0.00 77 1014.1
20260504035018 53 22 2.0 4.0 0.00 0.00 0.00 77 1014.2
20260504034015 53 19 2.0 3.0 0.00 0.00 0.00 77 1014.2
20260504033034 53 19 2.0 3.0 0.00 0.00 0.00 77 1014.2
20260504032011 53 21 2.0 3.0 0.00 0.00 0.00 77 1014.3
20260504031010 53 20 2.0 3.0 0.00 0.00 0.00 77 1014.3
20260504030007 53 17 2.0 2.0 0.00 0.00 0.00 77 1014.4
20260504025006 53 20 2.0 3.0 0.00 0.00 0.00 77 1014.4
20260504024004 53 24 2.0 3.0 0.00 0.00 0.00 77 1014.5
20260504022500 53 21 2.0 4.0 0.00 0.00 0.00 77 1014.5
20260504021458 53 19 2.0 3.0 0.00 0.00 0.00 77 1014.5
20260504020457 53 24 2.0 4.0 0.00 0.00 0.00 77 1014.4
20260504015454 53 19 2.0 3.0 0.00 0.00 0.00 77 1014.6
20260504014452 53 26 2.0 3.0 0.00 0.00 0.00 77 1014.7
20260504013450 53 23 2.0 4.0 0.00 0.00 0.00 76 1014.6
20260504012449 53 23 2.0 3.0 0.00 0.00 0.00 76 1014.6
20260504011507 53 19 2.0 3.0 0.00 0.00 0.00 76 1014.6
20260504010444 54 22 2.0 3.0 0.00 0.00 0.00 76 1014.6
20260504005443 54 21 2.0 3.0 0.00 0.00 0.00 76 1014.7
20260504004441 54 21 2.0 3.0 0.00 0.00 0.00 76 1014.7
20260504003441 54 23 2.0 3.0 0.00 0.00 0.00 76 1014.7
20260504002438 54 21 2.0 3.0 0.00 0.00 0.00 76 1014.6
20260504001436 54 22 2.0 3.0 0.00 0.00 0.00 76 1014.7
20260504000453 54 22 2.0 4.0 0.00 0.00 0.00 76 1014.8
20260503235430 55 26 2.0 3.0 0.00 0.00 0.00 75 1014.9
20260503234429 55 19 2.0 3.0 0.00 0.00 0.00 75 1014.7
20260503233427 55 24 2.0 4.0 0.00 0.00 0.00 75 1014.8
20260503232424 56 20 2.0 3.0 0.00 0.00 0.00 74 1014.8
20260503231422 56 18 2.0 3.0 0.00 0.00 0.00 74 1014.9
20260503230421 56 21 2.0 3.0 0.00 0.00 0.00 74 1014.7
20260503225418 56 18 2.0 4.0 0.00 0.00 0.00 73 1014.7
20260503224417 56 17 2.0 3.0 0.00 0.00 0.00 73 1014.7
20260503223437 56 19 2.0 3.0 0.00 0.00 0.00 73 1014.7
20260503222413 56 17 2.0 3.0 0.00 0.00 0.00 73 1014.6
20260503221411 56 19 2.0 3.0 0.00 0.00 0.00 73 1014.7
20260503220408 56 16 2.0 3.0 0.00 0.00 0.00 73 1014.7
20260503215407 56 20 2.0 3.0 0.00 0.00 0.00 72 1014.7
20260503214404 56 18 2.0 2.0 0.00 0.00 0.00 72 1014.8
20260503213423 56 22 2.0 3.0 0.00 0.00 0.00 71 1014.9
20260503212400 56 17 2.0 3.0 0.00 0.00 0.00 70 1014.8
20260503211359 57 18 2.0 4.0 0.00 0.00 0.00 69 1014.8
20260503210356 57 24 2.0 4.0 0.00 0.00 0.00 69 1014.8
20260503205355 57 20 2.0 4.0 0.00 0.00 0.00 68 1014.5
20260503204352 57 17 2.0 4.0 0.00 0.00 0.00 68 1014.5
20260503203351 57 19 2.0 4.0 0.00 0.00 0.00 69 1014.2
20260503202348 57 10 2.0 4.0 0.00 0.00 0.00 69 1014.0
20260503201347 58 21 2.0 4.0 0.00 0.00 0.00 68 1013.5
20260503200424 58 228 2.0 6.0 0.00 0.00 0.00 67 1013.4
20260503195343 58 228 2.0 7.0 0.00 0.00 0.00 67 1013.4
20260503194341 59 225 2.0 5.0 0.00 0.00 0.00 65 1013.4
20260503193358 60 214 2.0 4.0 0.00 0.00 0.00 63 1013.4
20260503192337 61 220 2.0 6.0 0.00 0.00 0.00 62 1013.1
20260503191334 63 202 2.0 7.0 0.00 0.00 0.00 60 1013.1
20260503190333 65 219 2.0 8.0 0.00 0.00 0.00 57 1012.9
20260503185331 66 329 1.0 2.0 0.00 0.00 0.00 54 1012.9
20260503184329 67 225 2.0 3.0 0.00 0.00 0.00 53 1012.5
20260503183407 68 303 1.0 3.0 0.00 0.00 0.00 52 1012.5
20260503182345 68 324 2.0 4.0 0.00 0.00 0.00 51 1012.5
20260503181323 68 344 2.0 4.0 0.00 0.00 0.00 50 1012.2
20260503180320 69 270 2.0 4.0 0.00 0.00 0.00 51 1012.2
20260503175319 69 270 2.0 4.0 0.00 0.00 0.00 50 1012.2
20260503174316 69 315 1.0 2.0 0.00 0.00 0.00 51 1012.2
20260503173315 69 319 2.0 5.0 0.00 0.00 0.00 51 1012.2
20260503172314 68 319 2.0 4.0 0.00 0.00 0.00 53 1012.4
20260503171310 68 299 2.0 6.0 0.00 0.00 0.00 54 1012.2
20260503170309 68 239 2.0 4.0 0.00 0.00 0.00 53 1012.2
20260503150244 66 3 5.0 7.0 0.00 0.00 0.00 65 1012.2
20260503140232 61 348 5.0 6.0 0.00 0.00 0.00 72 1013.4